Погода в Полокване

ЮАР     23°54′00″S   29°27′09″E
темп.,
°C
ветер,
м/с
пор.,
м/с
влажн.,
%
обл.,
%
осадки,
мм/ч
давл.,
гПа
погр.,
м
12 апреля, пн
пн1223:00+15с11500 0.0 102211
02:00+13св11610 0.0 102211
05:00+12в11720 0.0 102211
08:00+18в11460 0.0 1024158
11:00+26в46210 0.0 10231640
14:00+27в76200 0.0 10202006
17:00+24в66270 0.0 10211259
20:00+17всв35480 0.0 102470
13 апреля, вт
вт1323:00+14всв23680 0.0 102521
02:00+13всв12800 0.0 102411
05:00+12вюв11800 0.0 102411
08:00+18ю12500 0.0 1025184
11:00+26вюв36210 0.0 10231549
14:00+28в67180 0.0 10192678
17:00+26всв67240 0.0 1020733
20:00+18св33420 0.0 102318
14 апреля, ср
ср1423:00+16ссв22500 0.0 102311
02:00+14ссв11550 0.0 102211
05:00+13ссв11612 0.0 102211
08:00+19сз11445 0.0 1023158
11:00+26ю33275 0.0 10211480
14:00+28ююв56211 0.0 10182732
17:00+26юв34242 0.0 1017716
20:00+19св33438 0.0 102022
15 апреля, чт
чт1523:00+17св22501 0.0 102011
02:00+15ссв12595 0.0 101911
05:00+14зсз22645 0.0 102011
08:00+18с225584 0.0 1021235
11:00+25с21315 0.0 10191353
14:00+28ссз132388 0.0 10153346
17:00+25с342786 0.0 101595
20:00+19ссв355134 0.0 101893
16 апреля, пт
пт1623:00+17ссз35584 0.0 101869
02:00+16ссз23615 0.0 101834
05:00+15зюз22664 0.0 101811
08:00+20св33490 0.0 1021256
11:00+24св433925 0.0 10201986
14:00+21св865759 1.1 1019962
17:00+16св897515 0.1 1021563
20:00+12всв9138299 0.1 1024569